[[{"header":{"parameterUnit":"m.s-1","parameterCategory":1,"la1":30.2991,"la2":30.254,"lo1":-89.0895,"lo2":-89.0444,"dy":0.0017,"dx":0.0017,"nx":28,"ny":28,"refTime":"2024-02-22T09:00:00:Z","depth":0,"parameterNumber":2,"parameterNumberName":"U-component_of_WINDS"},"data":[0,0,0,0,0,0,0,0,0,0,0,0,0,0,0,0,0,0,0,0,0,0,0,0,0,0,0,0,0,0,0,0,0,0,0,0,0,0,0,0,0,0,0,0,0,0,0,0,0,0,0,0,0,0,0,0,0,0,-1.4564,-1.4564,0,-1.457,-1.4571,-1.4571,-1.4543,-1.4542,-1.4541,-1.454,-1.4551,-1.4552,-1.4553,0,0,0,0,0,0,0,0,0,0,0,0,0,-1.4529,-1.4529,-1.4564,-1.4564,-1.4564,-1.457,-1.4571,-1.4571,-1.4543,-1.4542,-1.4541,-1.454,-1.4551,-1.4552,-1.4553,0,0,0,0,0,0,0,0,0,0,0,0,0,-1.4541,-1.453,-1.4563,-1.455,-1.4549,-1.457,-1.4571,-1.4571,-1.4543,-1.4542,-1.454,-1.4539,-1.455,-1.4552,-1.4554,-1.4589,0,0,-1.4558,-1.4559,0,0,0,0,0,0,0,0,-1.454,-1.4542,-1.4552,-1.4551,-1.455,-1.4554,-1.4562,-1.4577,-1.4543,-1.4546,-1.454,-1.4539,-1.4553,-1.4555,-1.4559,-1.4589,-1.459,-1.4559,-1.456,-1.456,-1.4561,0,0,0,0,0,0,0,-1.4539,-1.4542,-1.4566,-1.4553,-1.4551,-1.4545,-1.4545,-1.4565,-1.4557,-1.4545,-1.4543,-1.4544,-1.4553,-1.4557,-1.4559,-1.459,-1.4559,-1.456,-1.4561,-1.4562,-1.4647,-1.4649,0,0,0,0,0,0,-1.454,-1.4541,-1.4566,-1.4567,-1.4542,-1.4547,-1.4547,-1.4554,-1.4556,-1.4555,-1.4545,-1.4543,-1.4555,-1.4557,-1.4559,-1.4599,-1.456,-1.4562,-1.4563,-1.4646,-1.4648,-1.4649,0,0,0,0,0,0,-1.4539,-1.4542,-1.4566,-1.4553,-1.4556,-1.4549,-1.4557,-1.4555,-1.456,-1.4556,-1.4555,-1.4551,-1.4554,-1.4557,-1.4581,-1.4599,-1.4562,-1.4564,-1.4644,-1.4646,-1.4648,-1.4679,0,0,0,0,0,0,-1.4538,-1.4542,-1.4555,-1.4554,-1.4556,-1.4587,-1.4558,-1.4556,-1.4562,-1.4559,-1.4562,-1.4561,-1.4554,-1.4579,-1.4582,-1.46,-1.4565,-1.4643,-1.4645,-1.4648,-1.4677,-1.4682,-1.4687,0,0,0,0,0,-1.4537,-1.4565,-1.4556,-1.4559,-1.4572,-1.4588,-1.4589,-1.4579,-1.4564,-1.4577,-1.4574,-1.4561,-1.4597,-1.4581,-1.4585,-1.4604,-1.4642,-1.4645,-1.4647,-1.4674,-1.4681,-1.4687,0,0,0,0,0,0,-1.457,-1.4564,-1.4554,-1.4582,-1.4585,-1.4583,-1.4599,-1.4587,-1.4596,-1.4593,-1.4581,-1.4582,-1.4607,-1.4609,-1.4592,-1.4637,-1.4616,-1.462,-1.4635,-1.4642,-1.4647,-1.4645,-1.4567,0,0,0,0,0,-1.458,-1.4592,-1.4587,-1.4612,-1.4614,-1.4606,-1.4613,-1.4604,-1.4608,-1.461,-1.4609,-1.4614,-1.4626,-1.4634,-1.4645,-1.4677,-1.4676,-1.4692,-1.4697,-1.4701,-1.4704,-1.4719,-1.4726,-1.4659,-1.4659,-1.4659,0,0,-1.4602,-1.46,-1.4609,-1.4619,-1.462,-1.4633,-1.4608,-1.4623,-1.4633,-1.4612,-1.4634,-1.4634,-1.4638,-1.4666,-1.4678,-1.4667,-1.4723,-1.4705,-1.4708,-1.4709,-1.4723,-1.4729,-1.4735,-1.4661,-1.466,-1.466,0,0,-1.4647,-1.4648,-1.4668,-1.4669,-1.4671,-1.4666,-1.467,-1.467,-1.4668,-1.4689,-1.4673,-1.4685,-1.4707,-1.471,-1.4715,-1.476,-1.4748,-1.4764,-1.479,-1.4805,-1.4811,-1.4815,-1.483,-1.4835,-1.4768,-1.4768,-1.4768,0,-1.4674,-1.4692,-1.468,-1.4695,-1.47,-1.468,-1.47,-1.4703,-1.4709,-1.4713,-1.4701,-1.4726,-1.4728,-1.4755,-1.4766,-1.4771,-1.4775,-1.4763,-1.4811,-1.4815,-1.4819,-1.4833,-1.4839,-1.477,-1.477,-1.4769,-1.4769,0,-1.4724,-1.4737,-1.4753,-1.4757,-1.4764,-1.4782,-1.4773,-1.4781,-1.4772,-1.4768,-1.4789,-1.4791,-1.4801,-1.4807,-1.4799,-1.4832,-1.4825,-1.4812,-1.4791,-1.4828,-1.484,-1.4846,-1.4772,-1.4772,-1.4771,-1.4771,0,0,-1.4791,-1.4787,-1.4793,-1.4793,-1.4794,-1.4804,-1.4821,-1.4829,-1.4836,-1.4841,-1.4854,-1.4872,-1.4859,-1.4865,-1.4857,-1.4871,-1.4904,-1.4856,-1.4856,-1.4863,-1.4939,-1.4948,-1.4954,-1.4897,-1.4898,-1.4898,-1.4938,0,-1.4834,-1.4861,-1.485,-1.4879,-1.489,-1.4871,-1.4886,-1.4888,-1.4884,-1.4894,-1.489,-1.4902,-1.4885,-1.4888,-1.49,-1.4898,-1.4919,-1.4895,-1.4909,-1.4909,-1.4906,-1.4961,-1.4971,-1.5008,-1.4943,-1.4944,-1.4945,0,-1.4889,-1.4893,-1.4922,-1.4918,-1.4923,-1.4936,-1.4942,-1.4951,-1.4953,-1.495,-1.4954,-1.4944,-1.4961,-1.494,-1.4962,-1.4946,-1.4951,-1.4951,-1.4952,-1.4952,-1.4928,-1.4961,-1.502,-1.5025,-1.4953,-1.4952,-1.4952,0,-1.4932,-1.4946,-1.4964,-1.4966,-1.4963,-1.4972,-1.4972,-1.4972,-1.4977,-1.4983,-1.4986,-1.4995,-1.4999,-1.5006,-1.4997,-1.4983,-1.5021,-1.5,-1.5018,-1.5018,-1.5026,-1.5025,-1.5085,-1.5032,-1.5032,-1.5031,-1.5031,0,-1.4981,-1.4999,-1.4983,-1.4995,-1.5014,-1.5002,-1.5022,-1.5019,-1.5019,-1.503,-1.5016,-1.5026,-1.5015,-1.5025,-1.5019,-1.5038,-1.5041,-1.5038,-1.5036,-1.5038,-1.5038,-1.5041,-1.5037,-1.5033,-1.5033,-1.5032,-1.5032,0,-1.5032,-1.5023,-1.5041,-1.5036,-1.5035,-1.505,-1.5046,-1.5056,-1.5051,-1.5065,-1.5067,-1.506,-1.5071,-1.5063,-1.5075,-1.507,-1.5094,-1.5089,-1.5093,-1.5091,-1.5109,-1.5106,-1.5171,-1.5178,-1.5122,-1.5122,-1.5123,0,-1.5063,-1.5076,-1.5072,-1.5077,-1.5076,-1.5086,-1.509,-1.5078,-1.5084,-1.5086,-1.5096,-1.5105,-1.5111,-1.5129,-1.5125,-1.5133,-1.5127,-1.5149,-1.5129,-1.513,-1.5126,-1.5124,-1.5125,-1.5153,-1.5154,-1.5155,-1.5155,0,-1.5118,-1.5113,-1.5119,-1.5123,-1.5128,-1.5132,-1.5134,-1.514,-1.5127,-1.5134,-1.5144,-1.5148,-1.5159,-1.5167,-1.5174,-1.5174,-1.5162,-1.5161,-1.5166,-1.5168,-1.5168,-1.5167,-1.5103,-1.516,-1.5159,-1.5159,-1.5159,-1.5159,-1.5159,-1.5169,-1.5167,-1.5174,-1.5174,-1.5176,-1.5185,-1.518,-1.5187,-1.5193,-1.5187,-1.5198,-1.5198,-1.5205,-1.5207,-1.5216,-1.5207,-1.5214,-1.5215,-1.5216,-1.5218,-1.5168,-1.5217,-1.5217,-1.5217,-1.5217,-1.5217,0,-1.5213,-1.521,-1.5216,-1.5219,-1.5224,-1.5211,-1.5213,-1.5219,-1.5228,-1.5229,-1.5235,-1.5245,-1.5253,-1.5249,-1.5256,-1.5264,-1.5259,-1.5266,-1.5265,-1.5265,-1.5227,-1.5221,-1.527,-1.527,-1.527,-1.527,-1.527,-1.527,-1.5241,-1.5256,-1.525,-1.5265,-1.5263,-1.5272,-1.5274,-1.5275,-1.5276,-1.5287,-1.5293,-1.529,-1.5289,-1.5295,-1.5302,-1.5301,-1.5304,-1.5313,-1.5309,-1.5273,-1.5268,-1.5263,-1.5258,-1.5314,-1.5314,-1.5347,-1.5347,-1.5347]},{"header":{"parameterUnit":"m.s-1","parameterCategory":1,"la1":30.2991,"la2":30.254,"lo1":-89.0895,"lo2":-89.0444,"dy":0.0017,"dx":0.0017,"nx":28,"ny":28,"refTime":"2024-02-22T09:00:00:Z","depth":0,"parameterNumber":3,"parameterNumberName":"V-component_of_WINDS"},"data":[0,0,0,0,0,0,0,0,0,0,0,0,0,0,0,0,0,0,0,0,0,0,0,0,0,0,0,0,0,0,0,0,0,0,0,0,0,0,0,0,0,0,0,0,0,0,0,0,0,0,0,0,0,0,0,0,0,0,1.0789,1.0789,0,1.0761,1.0761,1.0761,1.0687,1.0685,1.0684,1.0682,1.0655,1.0655,1.0656,0,0,0,0,0,0,0,0,0,0,0,0,0,1.078,1.0781,1.0789,1.0789,1.0789,1.0761,1.0761,1.076,1.0687,1.0685,1.0683,1.0681,1.0654,1.0655,1.0656,0,0,0,0,0,0,0,0,0,0,0,0,0,1.0772,1.0781,1.079,1.0749,1.0745,1.0761,1.0761,1.076,1.0687,1.0685,1.0683,1.068,1.0654,1.0655,1.0656,1.071,0,0,1.066,1.066,0,0,0,0,0,0,0,0,1.0772,1.0772,1.0755,1.0752,1.0747,1.0725,1.0747,1.0744,1.0688,1.0709,1.0682,1.0679,1.068,1.0679,1.0679,1.0709,1.0708,1.066,1.066,1.0661,1.0661,0,0,0,0,0,0,0,1.0773,1.0773,1.0778,1.0755,1.075,1.0732,1.0728,1.0746,1.0708,1.0707,1.0702,1.0699,1.0677,1.0678,1.0678,1.0708,1.066,1.0661,1.0661,1.0662,1.078,1.0783,0,0,0,0,0,0,1.0779,1.0774,1.0779,1.0777,1.0754,1.0734,1.073,1.0735,1.0708,1.0702,1.0701,1.0696,1.0677,1.0676,1.0676,1.0738,1.0661,1.0662,1.0662,1.0778,1.0781,1.0783,0,0,0,0,0,0,1.0779,1.078,1.078,1.0774,1.0773,1.0737,1.0743,1.0735,1.0736,1.0703,1.0696,1.0709,1.0675,1.0675,1.0702,1.0736,1.0662,1.0663,1.0775,1.0779,1.0782,1.0862,0,0,0,0,0,0,1.0779,1.0781,1.0801,1.0775,1.0773,1.0807,1.0745,1.0736,1.0738,1.073,1.0709,1.0703,1.0673,1.0701,1.0703,1.0736,1.0664,1.0772,1.0777,1.0781,1.0856,1.0868,1.0878,0,0,0,0,0,1.0779,1.0825,1.0803,1.0804,1.0798,1.0809,1.0808,1.0773,1.0741,1.0761,1.074,1.0703,1.0732,1.0704,1.0706,1.074,1.0769,1.0775,1.0781,1.0851,1.0865,1.0878,0,0,0,0,0,0,1.0857,1.0821,1.0796,1.0834,1.0825,1.0797,1.0821,1.0789,1.0789,1.0783,1.0739,1.0735,1.0769,1.0757,1.0727,1.0791,1.0745,1.0751,1.0797,1.0811,1.0822,1.0824,1.0665,0,0,0,0,0,1.0878,1.089,1.0858,1.0895,1.0892,1.0857,1.0861,1.0834,1.0823,1.0819,1.0801,1.0792,1.0798,1.0804,1.0808,1.0853,1.0848,1.0878,1.0888,1.0898,1.0904,1.0927,1.094,1.0802,1.0802,1.0802,0,0,1.0923,1.0905,1.0915,1.0911,1.09,1.0914,1.0855,1.0872,1.0881,1.0822,1.0847,1.0833,1.082,1.0856,1.0872,1.0848,1.094,1.0905,1.0912,1.0913,1.0934,1.0947,1.0959,1.0806,1.0805,1.0804,0,0,1.1012,1.0999,1.1029,1.1019,1.1004,1.0981,1.0988,1.0964,1.0952,1.0976,1.0932,1.0942,1.0955,1.0947,1.0945,1.1029,1.0996,1.1032,1.109,1.1112,1.1123,1.1133,1.1163,1.1174,1.1038,1.1038,1.1038,0,1.107,1.1088,1.1048,1.1067,1.1067,1.1013,1.1042,1.1035,1.1023,1.1024,1.0997,1.1011,1.0998,1.1032,1.1053,1.1053,1.106,1.1035,1.1125,1.1134,1.1142,1.1171,1.1182,1.1043,1.1042,1.1042,1.1041,0,1.116,1.1173,1.1199,1.1187,1.1189,1.1214,1.1178,1.1184,1.1157,1.1137,1.1161,1.1144,1.1144,1.115,1.1124,1.118,1.1166,1.1132,1.1085,1.116,1.1186,1.1197,1.1049,1.1048,1.1046,1.1045,0,0,1.1298,1.1263,1.1274,1.1267,1.1246,1.1256,1.1277,1.1276,1.1283,1.1276,1.1293,1.1304,1.1273,1.1271,1.1243,1.1263,1.1331,1.1227,1.1226,1.1248,1.1392,1.1418,1.1432,1.1309,1.131,1.1312,1.1394,0,1.1382,1.1417,1.1382,1.1424,1.1436,1.1384,1.1403,1.1392,1.1373,1.138,1.1358,1.1367,1.1325,1.1323,1.1341,1.132,1.136,1.1313,1.1325,1.1326,1.1331,1.1445,1.1473,1.1551,1.1403,1.1405,1.1406,0,1.1485,1.1482,1.1526,1.1501,1.1504,1.1522,1.1518,1.1525,1.1512,1.1496,1.1493,1.1459,1.1479,1.1432,1.1458,1.1427,1.143,1.142,1.1422,1.1423,1.1371,1.1449,1.1574,1.1587,1.1422,1.1421,1.142,0,1.1583,1.1589,1.1616,1.1612,1.1584,1.1597,1.1586,1.157,1.1572,1.1568,1.1568,1.1567,1.1567,1.1567,1.1534,1.1503,1.1565,1.1515,1.1553,1.1554,1.1569,1.1569,1.1697,1.157,1.1569,1.1569,1.1569,0,1.1681,1.171,1.1659,1.1676,1.1706,1.1664,1.1696,1.1679,1.1665,1.1678,1.1633,1.1645,1.16,1.1608,1.1582,1.1608,1.1608,1.1597,1.159,1.1601,1.1603,1.1603,1.1597,1.1572,1.1572,1.1571,1.157,0,1.1796,1.1763,1.1789,1.1759,1.1752,1.1776,1.1751,1.1765,1.1742,1.1758,1.176,1.1724,1.1731,1.1698,1.1699,1.1681,1.1721,1.1704,1.1726,1.1721,1.1761,1.1758,1.1894,1.191,1.1772,1.1773,1.1774,0,1.1861,1.1882,1.1854,1.1859,1.185,1.1858,1.1859,1.1818,1.1821,1.1806,1.1823,1.1825,1.1826,1.1839,1.1814,1.1814,1.1798,1.1846,1.1798,1.1809,1.1799,1.1799,1.1801,1.1856,1.1858,1.1859,1.186,0,1.1981,1.1963,1.1966,1.1963,1.1965,1.1961,1.1954,1.1961,1.1916,1.1922,1.1928,1.1928,1.1928,1.1932,1.1927,1.1916,1.1881,1.1875,1.1884,1.1897,1.1909,1.1903,1.1754,1.1873,1.1872,1.1871,1.187,1.187,1.2074,1.2089,1.2072,1.2077,1.2066,1.2061,1.2072,1.205,1.2054,1.2051,1.2027,1.2038,1.2022,1.2012,1.2003,1.2011,1.1989,1.2002,1.2005,1.2009,1.2016,1.1907,1.201,1.201,1.2009,1.2009,1.2009,0,1.2192,1.2177,1.2182,1.2173,1.2176,1.2142,1.2132,1.2137,1.2147,1.2135,1.2136,1.2143,1.2146,1.212,1.2119,1.2131,1.2115,1.2132,1.2131,1.2129,1.2036,1.2029,1.2145,1.2145,1.2145,1.2145,1.2145,1.2145,1.2254,1.2279,1.2259,1.2278,1.2263,1.2273,1.227,1.2265,1.2255,1.2264,1.2266,1.2249,1.2231,1.2229,1.223,1.2222,1.2225,1.2248,1.2235,1.2149,1.2136,1.2123,1.2116,1.2248,1.2248,1.2327,1.2328,1.2328]}]]